Погода в Суккуре

Пакистан     27˚43′57″N   68˚50′04″E
темп.,
°C
ветер,
м/с
пор.,
м/с
влажн.,
%
обл.,
%
осадки,
мм/ч
давл.,
гПа
погр.,
м
5 декабря, сб
сб523:00+21˚з22270 0.0 101028
02:00+20˚ссз12320 0.0 101023
05:00+20˚ссв34260 0.0 101033
08:00+21˚св33210 0.0 101252
11:00+29˚всв34130 0.0 1013510
14:00+32˚в33100 0.0 10091579
17:00+28˚вюв23130 0.0 100965
20:00+23˚вюв34170 0.0 101244
6 декабря, вс
вс623:00+21˚в34190 0.0 101354
02:00+20˚всв46220 0.0 1013101
05:00+18˚всв48260 0.0 1013142
08:00+19˚всв49270 0.0 1017214
11:00+27˚в46160 0.0 1017663
14:00+31˚в33140 0.0 10141352
17:00+28˚вюв23170 0.0 1014141
20:00+23˚всв34210 0.0 101655
7 декабря, пн
пн723:00+21˚всв35230 0.0 101770
02:00+19˚св24270 0.0 101755
05:00+17˚св34306 0.0 101758
08:00+18˚всв353021 0.0 1019128
11:00+26˚всв331813 0.0 1019533
14:00+30˚юв11144 0.0 10151115
17:00+27˚ююв12182 0.0 1014109
20:00+22˚ююв22240 0.0 101624
8 декабря, вт
вт823:00+20˚юв11280 0.0 101624
02:00+18˚ссз12310 0.0 101523
05:00+18˚св12320 0.0 101527
08:00+20˚всв12280 0.0 101630
11:00+28˚всв11180 0.0 1017636
14:00+31˚зюз01160 0.0 10131295
17:00+27˚вюв11200 0.0 101362
20:00+23˚ссв34250 0.0 101543
9 декабря, ср
ср923:00+21˚всв45250 0.0 101579
02:00+19˚всв34280 0.0 101462
05:00+18˚св343133 0.0 101455
08:00+19˚ссв34290 0.0 1016100
11:00+27˚всв67170 0.0 1017648
14:00+30˚в44150 0.0 10131506
17:00+27˚в23180 0.0 1012319
20:00+23˚всв342547 0.0 101351